カタログに戻る

COSMOS 1275 DEB

運用中PO
NORAD 13473·DEBRIS·🇷🇺 Russia

打ち上げ Jun 4, 1981 から Plesetsk Cosmodrome

Loading…

次のパス (今後24時間)

TLE

最新Source: Space-Track

元期: Sep 14, 2026, 06:34 UTC

1 13473U 81053FV  26257.27398735  .00001959  00000-0  80044-3 0  9994
2 13473  82.8286 260.3501 0043849 130.1403 242.9407 14.26362987260533

AllMySatでCOSMOS 1275 DEBをリアルタイム追跡

Download on the App Store